Location: El Peñón
(10.3719°N, 67.3319°W)
Time: 04:08:28
(UTC+00:00)

Sylda 5 - Pass Details

Date: 13 June 2024
Orbit: 597 x 35451 km, 6.3° (Epoch: 21 July)

Event Time Altitude Azimuth Distance (km) Brightness Sun altitude
Rises 22:54:47 0° 254° (WSW) 8,251 8.7 -1.6°
Reaches altitude 10° 23:03:29 10° 244° (WSW) 4,550 7.1 -3.5°
Maximum altitude 23:10:48 26° 189° (S) 1,704 4.2 -5.2°
Drops below altitude 10° 23:14:09 10° 128° (SE) 2,021 4.1 -5.9°
Enters shadow 23:14:43 - 122° (ESE) 2,220 4.2 -6.1°
